Weather Roundup
Issued by NWS

Home | Current Version | Previous Version | Text Only | Print | Product List | Glossary On
Versions: 1 2 3 4 5 6 7 8 9 10 11 12 13 14 15 16 17 18 19 20 21 22 23 24 25 26 27 28 29 30 31 32 33 34 35 36 37 38 39 40 41 42 43 44 45 46 47 48 49 50
000
NZUS93 KARX 270610
HRRWXR

CURRENT HOURLY OBSERVATIONS ACROSS
MUCH OF THE UPPER MISSISSIPPI VALLEY
NATIONAL WEATHER SERVICE LA CROSSE WI
100 AM CDT SUN JUL 27 2014


...SOUTHEAST MINNESOTA...


CITY           SKY/WX    TMP DP  RH WIND       PRES   REMARKS
ROCHESTER      PTCLDY    69  65  86 W8        29.85F
ROCHESTER/MAYO FAIR      72  64  76 W10G22    29.83F
WINONA         PTCLDY    70  63  78 CALM      29.80F
AUSTIN         PTCLDY    68  66  94 W5        29.85F
ALBERT LEA     MOCLDY    72  66  83 W5        29.87R
DODGE CENTER   CLEAR     70  64  83 W8        29.85S
PRESTON        CLEAR     68  68  98 W8        29.85F
OWATONNA       CLEAR     70  64  83 W7        29.85S
FARIBAULT      CLEAR     72  59  64 W7        29.85S
$$

...ELSEWHERE IN MINNESOTA...


CITY           SKY/WX    TMP DP  RH WIND       PRES   REMARKS
MINNEAPOLIS    PTCLDY    74  57  55 W10       29.81S
INTNL FALLS    MOCLDY    58  56  93 CALM      29.70F
DULUTH         PTCLDY    62  55  77 W5        29.74F
RED WING       CLEAR     70  64  83 W6        29.80R
REDWOOD FALLS  CLEAR     69  58  67 W12       29.87F
MANKATO        CLEAR     70  59  68 W6        29.86S
WORTHINGTON    CLEAR     64  59  82 NW9       29.96R
FAIRMONT       CLEAR     72  59  64 NW10      29.90S
$$

...SOUTHWEST WISCONSIN...


CITY           SKY/WX    TMP DP  RH WIND       PRES   REMARKS
LA CROSSE      PTCLDY    70  62  76 SW8       29.80F
PRAIRIE DU CHI CLEAR     70  66  88 CALM      29.81F
BOSCOBEL       FOG       69  67  93 CALM      29.82S VSB 1/4
LONE ROCK      FOG       70  67  90 CALM      29.81S VSB 1/4
PLATTEVILLE    PTCLDY    71  70  96 NW6       29.84S
FORT MC COY    MOCLDY    69  66  90 CALM      29.81F
CAMP DOUGLAS   PTCLDY    72  69  90 W8        29.80F
VIROQUA        FAIR      68  68  99 NW7       29.85R
WIS DELLS      CLEAR     69  67  93 W3        29.80S
$$

...ELSEWHERE IN WISCONSIN...


CITY           SKY/WX    TMP DP  RH WIND       PRES   REMARKS
MILWAUKEE      PTCLDY    71  67  87 SW3       29.79F
MADISON        PTCLDY    68  65  90 CALM      29.80F
GREEN BAY      PTCLDY    71  67  87 SW5       29.76S
EAU CLAIRE     CLEAR     66  66 100 SW3       29.78S
BLACK RVR FLS  FAIR      68  67  96 CALM      29.79F
MEDFORD        PTCLDY    61  60  96 S6        29.79F
WAUSAU         CLOUDY    68  60  75 W8        29.75F
WIS RAPIDS     TSTM      65  63  93 MISG      29.83R FOG
MARSHFIELD     MOCLDY    65  61  87 W5        29.80F
RICE LAKE      CLOUDY    64  62  94 CALM      29.79S
$$

...NORTHEAST IOWA...


CITY           SKY/WX    TMP DP  RH WIND       PRES   REMARKS
WATERLOO       CLEAR     68  67  96 NW5       29.84S
DUBUQUE        PTCLDY    66  66 100 SW6       29.84S
DECORAH        CLEAR     70  68  94 W3        29.84S
MASON CITY     CLEAR     68  65  90 W8        29.89F
CHARLES CITY   CLEAR     70  68  94 W6        29.87S
OELWEIN        CLEAR     68  68 100 NW7       29.86S
$$

...ELSEWHERE IN IOWA...


CITY           SKY/WX    TMP DP  RH WIND       PRES   REMARKS
DES MOINES     CLEAR     74  70  87 W3        29.88R
IOWA CITY      PTCLDY    69  69 100 W3        29.86S FOG
FORT DODGE     CLEAR     66  64  94 CALM      29.92S
MARSHALLTOWN   CLEAR     70  69  97 W5        29.87S FOG
CEDAR RAPIDS   CLEAR     68  67  96 W5        29.84S FOG
$$

...NORTHERN ILLINOIS...


CITY           SKY/WX    TMP DP  RH WIND       PRES   REMARKS
CHICAGO-OHARE  MOCLDY    74  68  81 W6        29.81F
DUPAGE         CLEAR     72  69  90 SW5       29.82F FOG
CHICAGO-MIDWAY PTCLDY    76  72  87 SW8       29.82F
MOLINE         CLEAR     66  66 100 SW5       29.82F FOG
ROCKFORD       MOCLDY    70  67  90 S6        29.83F
STERLING       PTCLDY    70  66  88 CALM      29.82F
PEORIA         CLOUDY    74  70  87 CALM      29.84F
$$

NOTE: "FAIR" INDICATES FEW OR NO CLOUDS BELOW 12,000 FEET WITH NO
SIGNIFICANT WEATHER AND/OR OBSTRUCTIONS TO VISIBILITY. WIND
SPEEDS ARE IN MILES-PER-HOUR.



USA.gov is the U.S. government's official web portal to all federal, state and local government web resources and services.